Location: Izdebno
(52.6670°N, 16.2170°E)
Time: 04:13:40
(UTC+01:00)

A-11 Canister half - All Passes

Search period start: 08 February 2023 00:00
Search period end: 18 February 2023 00:00
Orbit: 1525 x 1683 km, 47.3° (Epoch: 07 February)

Date Brightness Start Highest point End Pass type
(mag) Time Alt. Az. Time Alt. Az. Time Alt. Az.
08 Feb - 02:11:14 10° SE 02:13:09 11° ESE 02:15:05 10° ESE visible
08 Feb - 04:07:41 10° SSW 04:15:44 35° SE 04:23:49 10° E visible
08 Feb - 06:10:28 10° WSW 06:19:30 60° SSE 06:28:42 10° E visible
08 Feb - 08:14:45 10° W 08:23:51 61° SSW 08:33:10 10° ESE daylight
08 Feb - 10:19:28 10° W 10:27:44 37° SW 10:36:13 10° SSE daylight
08 Feb - 12:27:04 10° WSW 12:30:30 12° SW 12:33:58 10° SSW daylight
09 Feb - 03:46:09 10° SSW 03:54:07 33° SE 04:02:06 10° E visible
09 Feb - 05:48:49 10° WSW 05:57:51 59° SSE 06:07:00 10° E visible
09 Feb - 07:53:04 10° W 08:02:10 61° S 08:11:29 10° ESE daylight
09 Feb - 09:57:46 10° W 10:06:06 38° SSW 10:14:38 10° SSE daylight
09 Feb - 12:04:58 10° W 12:08:55 13° SW 12:12:55 10° SSW daylight
10 Feb - 03:24:38 10° SSW 03:32:30 32° SE 03:40:22 10° E visible
10 Feb - 05:27:11 10° WSW 05:36:12 58° SSE 05:45:19 10° E visible
10 Feb - 07:31:24 10° W 07:40:31 62° S 07:49:48 10° ESE daylight
10 Feb - 09:36:05 10° W 09:44:28 39° SSW 09:53:03 10° SSE daylight
10 Feb - 11:42:57 10° W 11:47:20 14° SW 11:51:46 10° SSW daylight
11 Feb - 03:03:07 10° SSW 03:10:54 31° SE 03:18:39 10° E visible
11 Feb - 05:05:32 10° WSW 05:14:33 57° SSE 05:23:37 10° E visible
11 Feb - 07:09:44 10° W 07:18:50 62° S 07:28:07 10° ESE daylight
11 Feb - 09:14:23 10° W 09:22:50 40° SSW 09:31:28 10° SSE daylight
11 Feb - 11:20:59 10° W 11:25:45 15° SW 11:30:35 10° SSW daylight
12 Feb - 02:41:37 10° SSW 02:49:17 30° SE 02:56:55 10° E visible
12 Feb - 04:43:53 10° WSW 04:52:53 56° SSE 05:01:55 10° E visible
12 Feb - 06:48:04 10° W 06:57:10 63° S 07:06:27 10° ESE daylight
12 Feb - 08:52:42 10° W 09:01:12 41° SSW 09:09:52 10° SE daylight
12 Feb - 10:59:04 10° W 11:04:09 16° SW 11:09:20 10° SSW daylight
13 Feb - 02:20:08 10° SSW 02:27:40 29° SE 02:35:11 10° E visible
13 Feb - 04:22:16 10° SW 04:31:14 55° SSE 04:40:14 10° E visible
13 Feb - 06:26:23 10° W 06:35:30 63° S 06:44:45 10° ESE visible
13 Feb - 08:31:01 10° W 08:39:34 43° SSW 08:48:16 10° SE daylight
13 Feb - 10:37:11 10° W 10:42:34 17° SW 10:48:03 10° SSW daylight
14 Feb - 01:58:38 10° SSW 02:06:04 28° SE 02:13:26 10° E visible
14 Feb - 04:00:37 10° SW 04:09:35 54° SSE 04:18:33 10° E visible
14 Feb - 06:04:43 10° W 06:13:50 64° S 06:23:05 10° ESE visible
14 Feb - 08:09:19 10° W 08:17:55 44° SSW 08:26:40 10° SE daylight
14 Feb - 10:15:19 10° W 10:20:59 18° SW 10:26:45 10° SSW daylight
15 Feb - 01:37:10 10° S 01:44:27 26° SE 01:51:42 10° E visible
15 Feb - 03:38:59 10° SW 03:47:55 53° SSE 03:56:51 10° E visible
15 Feb - 05:43:03 10° W 05:52:10 64° S 06:01:23 10° ESE visible
15 Feb - 07:47:38 10° W 07:56:17 45° SSW 08:05:04 10° SE daylight
15 Feb - 09:53:29 10° W 09:59:24 19° SW 10:05:24 10° S daylight
16 Feb - 01:15:42 10° S 01:22:51 25° SE 01:29:57 10° E visible
16 Feb - 03:17:22 10° SW 03:26:16 52° SSE 03:35:10 10° E visible
16 Feb - 05:21:22 10° W 05:30:30 64° S 05:39:43 10° ESE visible
16 Feb - 07:25:57 10° W 07:34:38 46° SSW 07:43:26 10° SE daylight
16 Feb - 09:31:40 10° W 09:37:48 20° SW 09:44:02 10° S daylight
17 Feb - 00:54:16 10° S 01:01:15 24° SE 01:08:11 10° E visible
17 Feb - 02:55:44 10° SW 03:04:37 51° SSE 03:13:29 10° E visible
17 Feb - 04:59:42 10° W 05:08:50 64° S 05:18:02 10° ESE visible
17 Feb - 07:04:16 10° W 07:13:00 47° SSW 07:21:50 10° SE daylight
17 Feb - 09:09:51 10° W 09:16:13 21° SW 09:22:39 10° S daylight
